This demonstration page uses our WeatherBlox Daily Observations layout. Learn more.

Left ArrowRight Arrow

Hourly Observations for February 21, 2016

Temp ( °F °C ) Dew Point ( °F °C ) Humidity (%) Winds ( mph kmh ) Pressure ( in mb ) Visibility ( mi km ) Precip ( " mm )
12:53 am 00:53 Mostly Clear 41 5 37 2.8 86 86 Calm 30.21 1023 10 16 0.00 0.00
1:53 am 01:53 Clear 41 5 36 2.2 82 82 Calm 30.21 1023 10 16 0.00 0.00
2:53 am 02:53 Clear 40 4.4 35 1.7 83 83 Calm 30.21 1023 10 16 0.00 0.00
3:53 am 03:53 Clear 40 4.4 35 1.7 83 83 NNW 6 9 30.22 1024 10 16 0.00 0.00
4:53 am 04:53 Clear 38 3.3 33 0.6 83 83 NNE 3 6 30.24 1024 10 16 0.00 0.00
5:53 am 05:53 Clear 39 3.9 34 1.1 82 82 NW 6 9 30.24 1024 10 16 0.00 0.00
6:53 am 06:53 Clear 38 3.3 33 0.6 83 83 Calm 30.24 1024 10 16 0.00 0.00
7:53 am 07:53 Sunny 40 4.4 35 1.7 83 83 Calm 30.27 1025 10 16 0.00 0.00
8:53 am 08:53 Sunny 47 8.3 40 4.4 77 77 N 3 6 30.28 1025 10 16 0.00 0.00
9:53 am 09:53 Sunny 52 11.1 41 5 66 66 NNE 5 7 30.28 1026 10 16 0.00 0.00
10:53 am 10:53 Sunny 57 13.9 42 5.6 58 58 Calm 30.28 1025 10 16 0.00 0.00
11:53 am 11:53 Sunny 60 15.6 42 5.6 52 52 ENE 5 7 30.26 1025 10 16 0.00 0.00
12:53 pm 12:53 Sunny 60 15.6 42 5.6 52 52 S 3 6 30.24 1024 10 16 0.00 0.00
1:53 pm 13:53 Sunny 63 17.2 40 4.4 43 43 Calm 30.22 1023 10 16 0.00 0.00
2:53 pm 14:53 Mostly Cloudy 64 17.8 40 4.4 41 41 Calm 30.23 1024 10 16 0.00 0.00
3:53 pm 15:53 Cloudy 65 18.3 37 2.8 36 36 Calm 30.23 1024 10 16 0.00 0.00
4:53 pm 16:53 Mostly Cloudy 63 17.2 42 5.6 47 47 S 3 6 30.22 1023 10 16 0.00 0.00
5:53 pm 17:53 Mostly Cloudy 60 15.6 42 5.6 52 52 Calm 30.21 1023 10 16 0.00 0.00
6:53 pm 18:53 Cloudy 57 13.9 45 7.2 64 64 Calm 30.23 1024 10 16 0.00 0.00
7:53 pm 19:53 Cloudy 57 13.9 45 7.2 64 64 NNW 3 6 30.24 1024 10 16 0.00 0.00
8:53 pm 20:53 Partly Cloudy 56 13.3 44 6.7 65 65 NNW 5 7 30.26 1025 10 16 0.00 0.00
9:53 pm 21:53 Clear 52 11.1 44 6.7 75 75 Calm 30.25 1025 10 16 0.00 0.00
10:53 pm 22:53 Clear 49 9.4 42 5.6 77 77 WNW 3 6 30.24 1024 10 16 0.00 0.00
11:53 pm 23:53 Clear 48 8.9 42 5.6 80 80 N 5 7 30.24 1024 10 16 0.00 0.00

Powered by AerisWeather